Flag for Canada Weather past 2 weeks in Clarington, Ontario, Canada

Now
77 °F

Partly sunny.


Feels Like: 79 °F
Forecast: 58 / 77 °F
Wind: 2 mph from North

Location: Peterborough Airport

Current Time: Jul 5, 2015 at 1:37:22 PM

Latest Report: Jul 5, 2015 at 1:00 PM


Visibility: 9 mi

Pressure: 30.12 "Hg

Humidity: 57%

Dew point: 61 °F

Location of ClaringtonLocation

Historic Weather in Clarington — Graph

°F

Clarington temperature yesterday

Maximum temperature yesterday: 77 °F (at 5:00 PM)
Minimum temperature yesterday: 46 °F (at 4:00 AM)
Average temperature yesterday: 63 °F

Past Weeks' High & Low Weather Summary

 TemperatureHumidityPressure
High79 °F (Jun 21, 2:00 PM)100% (Jun 23, 12:00 AM)30.12 "Hg (Jun 23, 12:00 AM)
Low45 °F (Jul 3, 6:00 AM)33% (Jul 2, 3:00 PM)29.60 "Hg (Jun 23, 6:00 AM)
Average63 °F80%29.91 "Hg
* Reported Jun 20 12:00 Noon — Jul 5 12:00 Noon, Clarington, Weather by CustomWeather, © 2015

Note: Actual official high and low records may vary slightly from our data, if they occured in-between our weather recording intervals... More about our weather records

Advertising

Clarington weather history for previous 24 hours

 ConditionsComfort  
Time TempWeatherWind HumidityBarometerVisibility
12:00 PM
Sun, Jul 5
75 °FSunny.3 mph65%30.12 "Hg9 mi
11:00 AM73 °FSunny.2 mph65%30.12 "Hg9 mi
10:00 AM70 °FSunny.2 mph73%30.11 "Hg9 mi
9:00 AM64 °FSunny.2 mph88%30.12 "Hg9 mi
8:00 AM61 °FSunny.No wind88%30.11 "Hg9 mi
7:00 AM55 °FSunny.2 mph100%30.10 "Hg9 mi
6:00 AM50 °FFog.No wind100%30.08 "Hg2 mi
5:56 AM52 °FFog.2 mph94%30.07 "Hg1 mi
5:00 AM52 °FClear.No wind100%30.06 "Hg8 mi
4:01 AM52 °FFog.No wind100%30.05 "Hg5 mi
3:00 AM55 °FClear.2 mph94%30.04 "Hg9 mi
2:00 AM55 °FClear.5 mph94%30.03 "Hg9 mi
1:00 AM57 °FClear.3 mph88%30.03 "Hg9 mi
12:00 AM57 °FClear.2 mph94%30.01 "Hg9 mi
11:00 PM
Sat, Jul 4
57 °FClear.No wind94%30.00 "Hg9 mi
10:00 PM61 °FClear.2 mph88%29.98 "Hg7 mi
9:00 PM66 °FSunny.2 mph73%29.96 "Hg9 mi
8:00 PM72 °FSunny.7 mph53%29.94 "Hg9 mi
7:00 PM75 °FSunny.10 mph47%29.94 "Hg9 mi
6:00 PM77 °FSunny.9 mph47%29.94 "Hg9 mi
5:00 PM77 °FSunny.9 mph44%29.94 "Hg9 mi
4:00 PM75 °FPassing clouds.10 mph44%29.94 "Hg9 mi
3:00 PM75 °FSunny.2 mph36%29.94 "Hg9 mi
2:00 PM75 °FSunny.5 mph41%29.94 "Hg9 mi
1:00 PM73 °FSunny.2 mph36%29.95 "Hg9 mi
Weather by CustomWeather, © 2015

See weather overviewHow to use our weather pages